Толук

Kyrgyzstan     41˚55′58″N   73˚37′01″E
temp.,
°C
wind,
m/s
gust,
m/s
humid.,
%
clouds,
%
prec.,
mm/h
press.,
hPa
HPBL,
m
29 november, sun
sun2900:00−15˚s11100100 0.2 104434
03:00−18˚nne1110047 0.0 104420
06:00−18˚nne229769 0.0 104420
09:00−17˚n228845 0.0 104420
12:00−13˚sw018623 0.0 104161
15:00−13˚sw00850 0.0 103926
18:00−16˚nne22690 0.0 104220
21:00−16˚nne33640 0.0 104121
30 november, mon
mon3000:00−16˚nne44640 0.0 104022
03:00−16˚nne44610 0.0 103922
06:00−16˚nne44560 0.0 104022
09:00−16˚nne44520 0.0 103924
12:00−11˚ne22660 0.0 103630
15:00−11˚ene22670 0.0 103421
18:00−13˚nne43473 0.0 103421
21:00−13˚nne4440100 0.0 103323
1 december, tue
tue100:00−13˚nne4437100 0.0 103124
03:00−12˚nne4439100 0.0 103023
06:00−11˚nne3338100 0.0 102922
09:00−11˚nne3344100 0.0 102921
12:00−8˚nne126097 0.0 102927
15:00−9˚ene116467 0.0 102921
18:00−11˚nne114367 0.0 103121
21:00−11˚ene1145100 0.0 103221
2 december, wed
wed200:00−11˚ne226394 0.0 103221
03:00−10˚nne338491 0.0 103122
06:00−11˚nne229095 0.1 103121
09:00−10˚nne2286100 0.0 103121
12:00−7˚e1188100 0.0 102955
15:00−7˚se1190100 0.0 102733
18:00−9˚ne2283100 0.0 102721
21:00−10˚ne2281100 0.0 102821
3 december, thu
thu300:00−10˚ne2287100 0.0 102721
03:00−7˚ene1195100 0.4 102627
06:00−8˚nne1195100 1.0 102621
09:00−8˚ne2292100 0.2 102621
12:00−5˚sse1195100 0.4 1024116
15:00−5˚se1299100 0.1 1022135
18:00−6˚ene1196100 0.3 102321
21:00−5˚ene1196100 1.7 102326